| time (UTC) | temp C | wind direction | speed KPH | gust KPH | rain 1hr cm | rain 24hr cm | rain mn cm | humidity % | barometer mb |
| 20260510083503 | 9 | 257 | 1.6 | 4.8 | 0.00 | 0.56 | 0.00 | 98 | 1010.8 |
| 20260510083003 | 9 | 257 | 4.8 | 4.8 | 0.00 | 0.56 | 0.00 | 98 | 1010.9 |
| 20260510082503 | 9 | 257 | 1.6 | 4.8 | 0.00 | 0.56 | 0.00 | 98 | 1010.8 |
| 20260510082003 | 9 | 257 | 1.6 | 4.8 | 0.00 | 0.56 | 0.00 | 98 | 1010.6 |
| 20260510081503 | 9 | 257 | 1.6 | 4.8 | 0.00 | 0.58 | 0.00 | 98 | 1010.7 |
| 20260510081003 | 9 | 257 | 1.6 | 4.8 | 0.00 | 0.58 | 0.00 | 98 | 1010.5 |
| 20260510080503 | 9 | 257 | 0.0 | 1.6 | 0.00 | 0.58 | 0.00 | 99 | 1010.4 |
| 20260510080003 | 9 | 0 | 0.0 | 0.0 | 0.00 | 0.58 | 0.00 | 99 | 1010.3 |
| 20260510075503 | 9 | 0 | 0.0 | 0.0 | 0.00 | 0.58 | 0.00 | 99 | 1010.4 |
| 20260510075024 | 9 | 0 | 0.0 | 0.0 | 0.00 | 0.58 | 0.00 | 99 | 1010.3 |
| 20260510074503 | 9 | 0 | 0.0 | 0.0 | 0.00 | 0.58 | 0.00 | 98 | 1010.3 |
| 20260510074003 | 9 | 257 | 0.0 | 1.6 | 0.00 | 0.58 | 0.00 | 98 | 1010.4 |
| 20260510073503 | 9 | 257 | 0.0 | 4.8 | 0.00 | 0.58 | 0.00 | 98 | 1010.4 |
| 20260510073003 | 9 | 257 | 0.0 | 4.8 | 0.00 | 0.61 | 0.00 | 98 | 1010.4 |
| 20260510072503 | 9 | 257 | 0.0 | 1.6 | 0.00 | 0.61 | 0.00 | 98 | 1010.3 |
| 20260510072003 | 9 | 257 | 0.0 | 1.6 | 0.00 | 0.64 | 0.00 | 98 | 1010.4 |
| 20260510071503 | 9 | 257 | 0.0 | 4.8 | 0.00 | 0.64 | 0.00 | 98 | 1010.7 |
| 20260510071003 | 9 | 257 | 1.6 | 4.8 | 0.00 | 0.64 | 0.00 | 98 | 1010.7 |
| 20260510070524 | 9 | 257 | 0.0 | 4.8 | 0.00 | 0.66 | 0.00 | 98 | 1010.7 |
| 20260510070003 | 9 | 0 | 0.0 | 0.0 | 0.00 | 0.66 | 0.00 | 98 | 1010.6 |
| 20260510065503 | 9 | 0 | 0.0 | 0.0 | 0.00 | 0.69 | 0.00 | 98 | 1010.8 |
| 20260510065003 | 9 | 257 | 0.0 | 4.8 | 0.00 | 0.69 | 0.00 | 98 | 1010.8 |
| 20260510064503 | 10 | 223 | 1.6 | 4.8 | 0.00 | 0.71 | 0.00 | 98 | 1010.9 |
| 20260510064003 | 10 | 180 | 1.6 | 4.8 | 0.00 | 0.71 | 0.00 | 99 | 1011.0 |
| 20260510063503 | 10 | 143 | 1.6 | 6.4 | 0.00 | 0.74 | 0.00 | 99 | 1011.0 |
| 20260510063003 | 10 | 142 | 1.6 | 11.3 | 0.00 | 0.74 | 0.00 | 99 | 1010.8 |
| 20260510062503 | 10 | 139 | 1.6 | 11.3 | 0.00 | 0.76 | 0.00 | 99 | 1011.1 |
| 20260510062003 | 10 | 127 | 1.6 | 9.7 | 0.00 | 0.76 | 0.00 | 99 | 1011.2 |
| 20260510061503 | 10 | 110 | 1.6 | 4.8 | 0.00 | 0.76 | 0.00 | 98 | 1011.5 |
| 20260510061003 | 10 | 110 | 0.0 | 4.8 | 0.00 | 0.76 | 0.00 | 99 | 1011.9 |
| 20260510060503 | 10 | 110 | 0.0 | 1.6 | 0.00 | 0.76 | 0.00 | 99 | 1011.9 |
| 20260510060024 | 10 | 110 | 0.0 | 4.8 | 0.00 | 0.76 | 0.00 | 99 | 1012.1 |
| 20260510055503 | 10 | 110 | 0.0 | 4.8 | 0.00 | 0.76 | 0.00 | 99 | 1012.0 |
| 20260510055024 | 9 | 110 | 0.0 | 1.6 | 0.00 | 0.76 | 0.00 | 99 | 1012.2 |
| 20260510054503 | 9 | 110 | 0.0 | 1.6 | 0.00 | 0.76 | 0.00 | 99 | 1012.3 |
| 20260510054003 | 9 | 110 | 0.0 | 1.6 | 0.00 | 0.76 | 0.00 | 99 | 1012.2 |
| 20260510053503 | 9 | 102 | 0.0 | 4.8 | 0.00 | 0.79 | 0.00 | 99 | 1012.2 |
| 20260510053003 | 9 | 76 | 0.0 | 4.8 | 0.00 | 0.79 | 0.00 | 98 | 1012.2 |
| 20260510052503 | 9 | 41 | 1.6 | 6.4 | 0.00 | 0.79 | 0.00 | 98 | 1012.3 |
| 20260510052003 | 8 | 54 | 1.6 | 6.4 | 0.00 | 0.79 | 0.00 | 98 | 1012.2 |
| 20260510051503 | 8 | 37 | 1.6 | 6.4 | 0.00 | 0.79 | 0.00 | 98 | 1012.3 |
| 20260510051024 | 8 | 13 | 1.6 | 9.7 | 0.00 | 0.79 | 0.00 | 97 | 1012.5 |
| 20260510050503 | 9 | 346 | 4.8 | 14.5 | 0.00 | 0.79 | 0.00 | 97 | 1012.2 |
| 20260510050003 | 9 | 329 | 1.6 | 14.5 | 0.00 | 0.79 | 0.00 | 98 | 1012.1 |
| 20260510045503 | 9 | 0 | 0.0 | 0.0 | 0.00 | 0.79 | 0.00 | 98 | 1011.5 |
| 20260510045024 | 9 | 0 | 0.0 | 0.0 | 0.00 | 0.79 | 0.00 | 98 | 1011.5 |
| 20260510044524 | 9 | 0 | 0.0 | 0.0 | 0.00 | 0.79 | 0.00 | 98 | 1011.4 |
| 20260510044003 | 9 | 0 | 0.0 | 0.0 | 0.00 | 0.79 | 0.00 | 98 | 1011.1 |
| 20260510043503 | 9 | 0 | 0.0 | 0.0 | 0.00 | 0.79 | 0.00 | 98 | 1011.4 |
| 20260510043003 | 9 | 0 | 0.0 | 0.0 | 0.00 | 0.79 | 0.00 | 98 | 1011.3 |
| 20260510042503 | 10 | 0 | 0.0 | 0.0 | 0.00 | 0.79 | 0.00 | 98 | 1011.3 |
| 20260510042003 | 10 | 0 | 0.0 | 0.0 | 0.00 | 0.79 | 0.00 | 98 | 1011.4 |
| 20260510041503 | 10 | 355 | 0.0 | 4.8 | 0.00 | 0.79 | 0.00 | 98 | 1011.4 |
| 20260510041026 | 9 | 355 | 1.6 | 4.8 | 0.00 | 0.79 | 0.00 | 98 | 1011.4 |
| 20260510040526 | 9 | 355 | 1.6 | 4.8 | 0.00 | 0.79 | 0.00 | 98 | 1011.3 |
| 20260510040005 | 9 | 355 | 1.6 | 4.8 | 0.00 | 0.79 | 0.00 | 98 | 1011.2 |
| 20260510035505 | 9 | 347 | 1.6 | 6.4 | 0.00 | 0.79 | 0.79 | 98 | 1011.0 |
| 20260510035005 | 9 | 346 | 1.6 | 6.4 | 0.00 | 0.79 | 0.79 | 98 | 1011.1 |
| 20260510034505 | 9 | 0 | 0.0 | 0.0 | 0.00 | 0.79 | 0.79 | 98 | 1010.6 |
| 20260510034026 | 9 | 0 | 0.0 | 0.0 | 0.00 | 0.79 | 0.79 | 98 | 1010.4 |
| 20260510033505 | 9 | 0 | 0.0 | 0.0 | 0.00 | 0.79 | 0.79 | 98 | 1010.3 |
| 20260510033026 | 9 | 0 | 0.0 | 0.0 | 0.00 | 0.79 | 0.79 | 98 | 1010.4 |
| 20260510032505 | 9 | 0 | 0.0 | 0.0 | 0.00 | 0.79 | 0.79 | 98 | 1010.4 |
| 20260510032026 | 9 | 0 | 0.0 | 0.0 | 0.00 | 0.79 | 0.79 | 98 | 1010.5 |
| 20260510031526 | 9 | 0 | 0.0 | 0.0 | 0.00 | 0.79 | 0.79 | 98 | 1010.4 |
| 20260510031005 | 9 | 0 | 0.0 | 0.0 | 0.00 | 0.79 | 0.79 | 98 | 1010.4 |
| 20260510030505 | 9 | 0 | 0.0 | 0.0 | 0.00 | 0.79 | 0.79 | 98 | 1010.3 |
| 20260510030005 | 10 | 0 | 0.0 | 0.0 | 0.00 | 0.79 | 0.79 | 98 | 1010.4 |
| 20260510025505 | 10 | 0 | 0.0 | 0.0 | 0.00 | 0.79 | 0.79 | 98 | 1010.4 |
| 20260510025005 | 10 | 0 | 0.0 | 0.0 | 0.00 | 0.79 | 0.79 | 98 | 1010.5 |
| 20260510024505 | 10 | 0 | 0.0 | 0.0 | 0.00 | 0.79 | 0.79 | 98 | 1010.5 |
| 20260510024005 | 10 | 0 | 0.0 | 0.0 | 0.00 | 0.79 | 0.79 | 98 | 1010.5 |
| 20260510023525 | 10 | 0 | 0.0 | 0.0 | 0.00 | 0.79 | 0.79 | 98 | 1010.5 |
| 20260510023026 | 10 | 0 | 0.0 | 0.0 | 0.00 | 0.79 | 0.79 | 98 | 1010.5 |
| 20260510022525 | 10 | 0 | 0.0 | 0.0 | 0.00 | 0.79 | 0.79 | 98 | 1010.5 |
| 20260510022005 | 9 | 0 | 0.0 | 0.0 | 0.00 | 0.79 | 0.79 | 98 | 1010.5 |
| 20260510021505 | 9 | 0 | 0.0 | 0.0 | 0.00 | 0.79 | 0.79 | 98 | 1010.3 |
| 20260510021005 | 9 | 0 | 0.0 | 0.0 | 0.00 | 0.79 | 0.79 | 98 | 1010.3 |
| 20260510020504 | 9 | 0 | 0.0 | 0.0 | 0.00 | 0.79 | 0.79 | 97 | 1010.2 |
| 20260510020005 | 10 | 127 | 0.0 | 1.6 | 0.00 | 0.79 | 0.79 | 97 | 1010.4 |
| 20260510015526 | 10 | 127 | 0.0 | 1.6 | 0.00 | 0.79 | 0.79 | 97 | 1010.3 |
| 20260510015005 | 10 | 127 | 0.0 | 1.6 | 0.00 | 0.79 | 0.79 | 97 | 1010.3 |
| 20260510014504 | 10 | 0 | 0.0 | 0.0 | 0.00 | 0.79 | 0.79 | 97 | 1010.5 |
| 20260510014005 | 10 | 127 | 0.0 | 1.6 | 0.00 | 0.79 | 0.79 | 97 | 1010.5 |
| 20260510013505 | 10 | 127 | 0.0 | 1.6 | 0.00 | 0.79 | 0.79 | 97 | 1010.3 |
| 20260510013005 | 10 | 0 | 0.0 | 0.0 | 0.00 | 0.79 | 0.79 | 97 | 1010.2 |
| 20260510012525 | 10 | 146 | 0.0 | 1.6 | 0.00 | 0.79 | 0.79 | 97 | 1010.1 |
| 20260510012026 | 10 | 146 | 0.0 | 4.8 | 0.00 | 0.79 | 0.79 | 97 | 1010.0 |
| 20260510011504 | 10 | 145 | 0.0 | 4.8 | 0.00 | 0.79 | 0.79 | 97 | 1010.0 |
| 20260510011025 | 10 | 144 | 1.6 | 4.8 | 0.00 | 0.79 | 0.79 | 97 | 1010.2 |
| 20260510010506 | 10 | 144 | 1.6 | 4.8 | 0.00 | 0.79 | 0.79 | 97 | 1010.1 |
| 20260510010005 | 10 | 144 | 0.0 | 4.8 | 0.00 | 0.79 | 0.79 | 97 | 1010.2 |
| 20260510005526 | 10 | 151 | 0.0 | 4.8 | 0.00 | 0.79 | 0.79 | 97 | 1010.0 |
| 20260510005005 | 10 | 161 | 1.6 | 6.4 | 0.00 | 0.79 | 0.79 | 97 | 1009.8 |
| 20260510004505 | 10 | 169 | 1.6 | 6.4 | 0.00 | 0.79 | 0.79 | 97 | 1009.8 |
| 20260510004005 | 10 | 169 | 1.6 | 11.3 | 0.00 | 0.79 | 0.79 | 97 | 1009.9 |
| 20260510003505 | 10 | 163 | 1.6 | 11.3 | 0.00 | 0.79 | 0.79 | 97 | 1009.8 |
| 20260510003005 | 10 | 149 | 1.6 | 9.7 | 0.00 | 0.79 | 0.79 | 97 | 1009.9 |
| 20260510002505 | 10 | 144 | 1.6 | 4.8 | 0.00 | 0.79 | 0.79 | 97 | 1009.9 |
| 20260510002025 | 10 | 145 | 1.6 | 9.7 | 0.00 | 0.79 | 0.79 | 97 | 1009.9 |
| 20260510001504 | 10 | 140 | 1.6 | 9.7 | 0.00 | 0.79 | 0.79 | 97 | 1009.8 |
| 20260510001004 | 10 | 131 | 0.0 | 9.7 | 0.00 | 0.79 | 0.79 | 97 | 1009.8 |
| 20260510000505 | 10 | 147 | 0.0 | 9.7 | 0.00 | 0.79 | 0.79 | 97 | 1009.8 |
| 20260510000005 | 11 | 171 | 1.6 | 9.7 | 0.00 | 0.79 | 0.79 | 97 | 1009.9 |
| 20260509235525 | 11 | 175 | 1.6 | 9.7 | 0.00 | 0.79 | 0.79 | 96 | 1009.7 |
| 20260509235025 | 11 | 192 | 1.6 | 4.8 | 0.00 | 0.79 | 0.79 | 96 | 1009.7 |
| 20260509234504 | 11 | 205 | 1.6 | 6.4 | 0.00 | 0.79 | 0.79 | 96 | 1009.6 |
| 20260509234004 | 11 | 211 | 1.6 | 6.4 | 0.00 | 0.79 | 0.79 | 96 | 1009.5 |
| 20260509233505 | 11 | 220 | 1.6 | 6.4 | 0.00 | 0.79 | 0.79 | 96 | 1009.5 |
| 20260509233005 | 11 | 216 | 1.6 | 6.4 | 0.00 | 0.79 | 0.79 | 96 | 1009.4 |
| 20260509232504 | 11 | 206 | 4.8 | 6.4 | 0.00 | 0.79 | 0.79 | 96 | 1009.2 |
| 20260509232005 | 11 | 203 | 1.6 | 9.7 | 0.00 | 0.79 | 0.79 | 96 | 1009.2 |
| 20260509231504 | 11 | 202 | 1.6 | 9.7 | 0.00 | 0.79 | 0.79 | 96 | 1009.3 |
| 20260509231004 | 11 | 205 | 1.6 | 6.4 | 0.00 | 0.79 | 0.79 | 96 | 1009.3 |
| 20260509230504 | 11 | 212 | 0.0 | 4.8 | 0.00 | 0.79 | 0.79 | 96 | 1009.5 |
| 20260509230004 | 11 | 218 | 0.0 | 1.6 | 0.00 | 0.79 | 0.79 | 96 | 1009.5 |
| 20260509225526 | 11 | 193 | 1.6 | 9.7 | 0.00 | 0.79 | 0.79 | 96 | 1009.6 |
| 20260509225004 | 11 | 196 | 1.6 | 9.7 | 0.00 | 0.79 | 0.79 | 96 | 1009.3 |
| 20260509224504 | 12 | 206 | 1.6 | 6.4 | 0.00 | 0.79 | 0.79 | 97 | 1009.3 |
| 20260509224005 | 12 | 205 | 1.6 | 9.7 | 0.00 | 0.79 | 0.79 | 97 | 1009.2 |
| 20260509223504 | 12 | 199 | 4.8 | 9.7 | 0.00 | 0.79 | 0.79 | 97 | 1009.2 |
| 20260509223005 | 12 | 186 | 4.8 | 9.7 | 0.00 | 0.79 | 0.79 | 97 | 1009.3 |
| 20260509222504 | 12 | 178 | 1.6 | 6.4 | 0.00 | 0.79 | 0.79 | 97 | 1009.3 |
| 20260509222004 | 12 | 187 | 1.6 | 6.4 | 0.00 | 0.79 | 0.79 | 97 | 1009.3 |
| 20260509221525 | 12 | 186 | 1.6 | 6.4 | 0.00 | 0.79 | 0.79 | 97 | 1009.3 |
| 20260509221005 | 12 | 174 | 1.6 | 9.7 | 0.00 | 0.79 | 0.79 | 98 | 1009.3 |
| 20260509220505 | 12 | 167 | 1.6 | 11.3 | 0.00 | 0.79 | 0.79 | 98 | 1009.3 |
| 20260509220005 | 12 | 163 | 1.6 | 11.3 | 0.00 | 0.79 | 0.79 | 98 | 1009.6 |
| 20260509215504 | 12 | 159 | 1.6 | 6.4 | 0.00 | 0.79 | 0.79 | 98 | 1009.6 |
| 20260509215025 | 11 | 173 | 1.6 | 9.7 | 0.00 | 0.79 | 0.79 | 98 | 1009.6 |
| 20260509214504 | 11 | 179 | 1.6 | 14.5 | 0.00 | 0.79 | 0.79 | 98 | 1009.7 |
| 20260509214004 | 11 | 157 | 4.8 | 14.5 | 0.00 | 0.79 | 0.79 | 98 | 1009.8 |
| 20260509213504 | 11 | 157 | 1.6 | 11.3 | 0.00 | 0.79 | 0.79 | 98 | 1009.7 |
| 20260509213005 | 11 | 168 | 1.6 | 11.3 | 0.03 | 0.79 | 0.79 | 98 | 1009.8 |
| 20260509212504 | 11 | 165 | 1.6 | 9.7 | 0.03 | 0.81 | 0.79 | 98 | 1009.8 |
| 20260509212004 | 11 | 152 | 4.8 | 11.3 | 0.03 | 0.81 | 0.79 | 98 | 1009.8 |
| 20260509211504 | 11 | 147 | 1.6 | 11.3 | 0.03 | 0.81 | 0.79 | 98 | 1009.8 |
| 20260509211026 | 11 | 149 | 1.6 | 9.7 | 0.03 | 0.81 | 0.79 | 98 | 1009.9 |
| 20260509210504 | 11 | 146 | 1.6 | 11.3 | 0.03 | 0.81 | 0.79 | 98 | 1009.8 |
| 20260509210004 | 11 | 146 | 4.8 | 16.1 | 0.03 | 0.81 | 0.79 | 98 | 1009.9 |
| 20260509205504 | 11 | 150 | 4.8 | 16.1 | 0.03 | 0.81 | 0.79 | 98 | 1009.9 |
| 20260509205005 | 11 | 149 | 4.8 | 14.5 | 0.03 | 0.81 | 0.79 | 98 | 1010.0 |
| 20260509204504 | 11 | 147 | 4.8 | 11.3 | 0.05 | 0.81 | 0.79 | 98 | 1010.0 |
| 20260509204004 | 11 | 153 | 1.6 | 11.3 | 0.05 | 0.81 | 0.79 | 97 | 1010.0 |
| 20260509203504 | 11 | 159 | 1.6 | 6.4 | 0.05 | 0.81 | 0.79 | 97 | 1010.0 |
| 20260509203004 | 11 | 162 | 0.0 | 6.4 | 0.03 | 0.79 | 0.76 | 97 | 1010.0 |
| 20260509202504 | 11 | 152 | 0.0 | 4.8 | 0.03 | 0.79 | 0.76 | 98 | 1010.1 |
| 20260509202025 | 11 | 171 | 1.6 | 9.7 | 0.03 | 0.79 | 0.76 | 98 | 1010.0 |
| 20260509201525 | 11 | 170 | 4.8 | 11.3 | 0.03 | 0.79 | 0.76 | 97 | 1010.0 |
| 20260509201004 | 11 | 167 | 1.6 | 11.3 | 0.05 | 0.79 | 0.76 | 97 | 1009.9 |
| 20260509200504 | 11 | 171 | 1.6 | 9.7 | 0.05 | 0.79 | 0.76 | 98 | 1010.1 |
| 20260509200025 | 11 | 173 | 1.6 | 9.7 | 0.05 | 0.79 | 0.76 | 97 | 1010.1 |
| 20260509195504 | 11 | 176 | 4.8 | 16.1 | 0.08 | 0.79 | 0.76 | 98 | 1010.2 |
| 20260509195025 | 11 | 177 | 4.8 | 16.1 | 0.08 | 0.79 | 0.76 | 98 | 1010.0 |
| 20260509194504 | 11 | 173 | 4.8 | 11.3 | 0.05 | 0.76 | 0.74 | 98 | 1010.1 |
| 20260509194004 | 11 | 170 | 4.8 | 11.3 | 0.05 | 0.76 | 0.74 | 98 | 1010.3 |
| 20260509193525 | 11 | 170 | 4.8 | 19.3 | 0.05 | 0.76 | 0.74 | 98 | 1010.3 |
| 20260509193004 | 11 | 171 | 6.4 | 19.3 | 0.05 | 0.76 | 0.74 | 98 | 1010.5 |
| 20260509192525 | 11 | 170 | 6.4 | 16.1 | 0.08 | 0.76 | 0.74 | 98 | 1010.4 |
| 20260509192025 | 11 | 170 | 4.8 | 16.1 | 0.08 | 0.76 | 0.74 | 98 | 1010.6 |
| 20260509191504 | 11 | 172 | 4.8 | 11.3 | 0.08 | 0.76 | 0.74 | 98 | 1010.6 |
| 20260509191004 | 11 | 174 | 6.4 | 30.6 | 0.08 | 0.74 | 0.71 | 98 | 1010.6 |
| 20260509190504 | 11 | 174 | 6.4 | 30.6 | 0.08 | 0.74 | 0.71 | 98 | 1010.7 |
| 20260509190005 | 11 | 177 | 6.4 | 25.7 | 0.08 | 0.74 | 0.71 | 97 | 1010.7 |
| 20260509185504 | 11 | 181 | 6.4 | 20.9 | 0.05 | 0.71 | 0.69 | 98 | 1010.7 |
| 20260509185004 | 11 | 176 | 6.4 | 14.5 | 0.08 | 0.71 | 0.69 | 98 | 1010.7 |
| 20260509184504 | 11 | 170 | 6.4 | 25.7 | 0.08 | 0.71 | 0.69 | 98 | 1010.7 |
| 20260509184004 | 11 | 170 | 9.7 | 25.7 | 0.08 | 0.71 | 0.69 | 98 | 1010.7 |
| 20260509183504 | 11 | 170 | 9.7 | 20.9 | 0.08 | 0.71 | 0.69 | 98 | 1010.7 |
| 20260509183004 | 11 | 168 | 9.7 | 22.5 | 0.08 | 0.76 | 0.69 | 98 | 1010.8 |
| 20260509182504 | 11 | 167 | 6.4 | 22.5 | 0.05 | 0.74 | 0.66 | 97 | 1010.7 |
| 20260509182025 | 11 | 168 | 6.4 | 19.3 | 0.05 | 0.74 | 0.66 | 98 | 1010.7 |
| 20260509181504 | 11 | 169 | 6.4 | 19.3 | 0.05 | 0.74 | 0.66 | 98 | 1010.7 |
| 20260509181004 | 11 | 172 | 9.7 | 25.7 | 0.05 | 0.71 | 0.64 | 98 | 1010.6 |
| 20260509180504 | 11 | 181 | 9.7 | 25.7 | 0.05 | 0.71 | 0.64 | 98 | 1010.5 |
| 20260509180025 | 11 | 181 | 9.7 | 25.7 | 0.05 | 0.71 | 0.64 | 98 | 1010.5 |
| 20260509175504 | 11 | 179 | 9.7 | 25.7 | 0.05 | 0.71 | 0.64 | 98 | 1010.5 |
| 20260509175004 | 11 | 184 | 6.4 | 22.5 | 0.05 | 0.69 | 0.61 | 98 | 1010.5 |
| 20260509174504 | 11 | 189 | 6.4 | 20.9 | 0.05 | 0.69 | 0.61 | 98 | 1010.7 |
| 20260509174004 | 11 | 189 | 6.4 | 14.5 | 0.05 | 0.69 | 0.61 | 98 | 1010.7 |
| 20260509173504 | 11 | 192 | 6.4 | 14.5 | 0.08 | 0.69 | 0.61 | 98 | 1010.7 |
| 20260509173004 | 11 | 189 | 6.4 | 14.5 | 0.08 | 0.69 | 0.61 | 98 | 1010.8 |
| 20260509172504 | 11 | 181 | 6.4 | 14.5 | 0.10 | 0.69 | 0.61 | 98 | 1010.7 |
| 20260509172004 | 11 | 184 | 4.8 | 11.3 | 0.10 | 0.69 | 0.61 | 98 | 1010.7 |
| 20260509171504 | 10 | 184 | 6.4 | 14.5 | 0.10 | 0.69 | 0.61 | 98 | 1010.7 |
| 20260509171004 | 10 | 183 | 6.4 | 14.5 | 0.10 | 0.66 | 0.58 | 98 | 1010.7 |
| 20260509170504 | 10 | 184 | 4.8 | 11.3 | 0.10 | 0.69 | 0.58 | 98 | 1010.6 |
| 20260509170004 | 10 | 170 | 4.8 | 9.7 | 0.10 | 0.69 | 0.58 | 98 | 1010.6 |
| 20260509165525 | 10 | 171 | 4.8 | 11.3 | 0.10 | 0.71 | 0.58 | 98 | 1010.6 |
| 20260509165005 | 10 | 173 | 4.8 | 11.3 | 0.08 | 0.74 | 0.56 | 98 | 1010.6 |
| 20260509164525 | 10 | 175 | 4.8 | 19.3 | 0.08 | 0.76 | 0.56 | 98 | 1010.7 |
| 20260509164025 | 10 | 173 | 6.4 | 25.7 | 0.10 | 0.79 | 0.56 | 98 | 1010.8 |
| 20260509163504 | 10 | 166 | 4.8 | 22.5 | 0.08 | 0.79 | 0.53 | 98 | 1010.9 |
| 20260509163025 | 10 | 165 | 4.8 | 22.5 | 0.08 | 0.81 | 0.53 | 98 | 1010.9 |
| 20260509162504 | 10 | 168 | 1.6 | 14.5 | 0.05 | 0.79 | 0.51 | 98 | 1010.8 |
| 20260509162004 | 10 | 169 | 4.8 | 16.1 | 0.05 | 0.79 | 0.51 | 98 | 1010.9 |
| 20260509161504 | 10 | 164 | 4.8 | 16.1 | 0.08 | 0.79 | 0.51 | 98 | 1011.0 |
| 20260509161004 | 10 | 158 | 1.6 | 14.5 | 0.05 | 0.76 | 0.48 | 98 | 1011.0 |
| 20260509160504 | 10 | 161 | 1.6 | 11.3 | 0.05 | 0.76 | 0.48 | 98 | 1011.0 |
| 20260509160004 | 10 | 161 | 1.6 | 9.7 | 0.05 | 0.76 | 0.48 | 98 | 1011.0 |
| 20260509155504 | 10 | 167 | 1.6 | 9.7 | 0.05 | 0.76 | 0.48 | 98 | 1011.1 |
| 20260509155004 | 10 | 184 | 1.6 | 9.7 | 0.05 | 0.76 | 0.48 | 98 | 1011.1 |
| 20260509154525 | 10 | 175 | 1.6 | 6.4 | 0.08 | 0.76 | 0.48 | 98 | 1011.2 |
| 20260509154004 | 10 | 162 | 1.6 | 9.7 | 0.05 | 0.74 | 0.46 | 98 | 1011.2 |
| 20260509153504 | 10 | 169 | 4.8 | 16.1 | 0.05 | 0.74 | 0.46 | 98 | 1011.3 |
| 20260509153004 | 10 | 171 | 4.8 | 16.1 | 0.05 | 0.74 | 0.46 | 98 | 1011.3 |
| 20260509152504 | 10 | 171 | 1.6 | 11.3 | 0.05 | 0.74 | 0.46 | 98 | 1011.3 |
| 20260509152117 | 10 | 170 | 0.0 | 6.4 | 0.05 | 0.74 | 0.46 | 98 | 1011.3 |
| 20260509151504 | 10 | 165 | 1.6 | 9.7 | 0.05 | 0.71 | 0.43 | 98 | 1011.4 |
| 20260509151005 | 10 | 167 | 1.6 | 9.7 | 0.05 | 0.71 | 0.43 | 98 | 1011.4 |
| 20260509150504 | 10 | 171 | 4.8 | 11.3 | 0.05 | 0.71 | 0.43 | 98 | 1011.5 |
| 20260509150004 | 10 | 167 | 4.8 | 11.3 | 0.05 | 0.71 | 0.43 | 98 | 1011.6 |
| 20260509145504 | 10 | 164 | 1.6 | 9.7 | 0.05 | 0.71 | 0.43 | 98 | 1011.5 |
| 20260509145004 | 10 | 170 | 1.6 | 9.7 | 0.05 | 0.71 | 0.43 | 98 | 1011.5 |
| 20260509144504 | 10 | 177 | 1.6 | 4.8 | 0.03 | 0.69 | 0.41 | 98 | 1011.6 |
| 20260509144004 | 10 | 183 | 0.0 | 4.8 | 0.05 | 0.69 | 0.41 | 98 | 1011.7 |
| 20260509143504 | 10 | 192 | 0.0 | 1.6 | 0.05 | 0.69 | 0.41 | 98 | 1011.7 |
| 20260509143004 | 10 | 0 | 0.0 | 0.0 | 0.05 | 0.69 | 0.41 | 98 | 1011.8 |
| 20260509142504 | 10 | 0 | 0.0 | 0.0 | 0.05 | 0.69 | 0.41 | 98 | 1011.7 |
| 20260509142004 | 9 | 0 | 0.0 | 0.0 | 0.05 | 0.69 | 0.41 | 98 | 1011.6 |
| 20260509141504 | 9 | 0 | 0.0 | 0.0 | 0.03 | 0.66 | 0.38 | 98 | 1011.6 |
| 20260509141004 | 9 | 0 | 0.0 | 0.0 | 0.03 | 0.66 | 0.38 | 98 | 1011.6 |
| 20260509140504 | 9 | 0 | 0.0 | 0.0 | 0.03 | 0.66 | 0.38 | 98 | 1011.5 |
| 20260509140005 | 9 | 0 | 0.0 | 0.0 | 0.05 | 0.66 | 0.38 | 98 | 1011.5 |
| 20260509135504 | 9 | 0 | 0.0 | 0.0 | 0.05 | 0.66 | 0.38 | 98 | 1011.6 |
| 20260509135004 | 9 | 0 | 0.0 | 0.0 | 0.05 | 0.66 | 0.38 | 98 | 1011.6 |
| 20260509134504 | 9 | 0 | 0.0 | 0.0 | 0.08 | 0.66 | 0.38 | 98 | 1011.6 |
| 20260509134025 | 9 | 0 | 0.0 | 0.0 | 0.05 | 0.64 | 0.36 | 98 | 1011.4 |
| 20260509133504 | 9 | 0 | 0.0 | 0.0 | 0.05 | 0.64 | 0.36 | 98 | 1011.4 |
| 20260509133025 | 9 | 248 | 0.0 | 1.6 | 0.08 | 0.64 | 0.36 | 98 | 1011.5 |
| 20260509132504 | 9 | 248 | 0.0 | 1.6 | 0.08 | 0.64 | 0.36 | 98 | 1011.3 |
| 20260509132004 | 9 | 248 | 0.0 | 1.6 | 0.08 | 0.64 | 0.36 | 98 | 1011.3 |
| 20260509131504 | 9 | 248 | 0.0 | 1.6 | 0.08 | 0.64 | 0.36 | 98 | 1011.3 |
| 20260509131025 | 9 | 248 | 0.0 | 1.6 | 0.08 | 0.64 | 0.36 | 98 | 1011.2 |
| 20260509130504 | 9 | 0 | 0.0 | 0.0 | 0.08 | 0.64 | 0.36 | 98 | 1011.1 |
| 20260509130004 | 9 | 0 | 0.0 | 0.0 | 0.05 | 0.61 | 0.33 | 98 | 1011.2 |
| 20260509125504 | 9 | 0 | 0.0 | 0.0 | 0.05 | 0.61 | 0.33 | 98 | 1011.3 |
| 20260509125004 | 9 | 0 | 0.0 | 0.0 | 0.05 | 0.61 | 0.33 | 98 | 1011.3 |
| 20260509124503 | 9 | 0 | 0.0 | 0.0 | 0.03 | 0.58 | 0.30 | 98 | 1011.4 |
| 20260509124004 | 9 | 248 | 0.0 | 1.6 | 0.03 | 0.58 | 0.30 | 98 | 1011.4 |
| 20260509123504 | 8 | 248 | 0.0 | 1.6 | 0.03 | 0.58 | 0.30 | 98 | 1011.4 |
| 20260509123004 | 8 | 0 | 0.0 | 0.0 | 0.00 | 0.56 | 0.28 | 98 | 1011.4 |
| 20260509122504 | 8 | 0 | 0.0 | 0.0 | 0.00 | 0.56 | 0.28 | 98 | 1011.4 |
| 20260509122004 | 8 | 0 | 0.0 | 0.0 | 0.00 | 0.56 | 0.28 | 98 | 1011.4 |
| 20260509121503 | 8 | 0 | 0.0 | 0.0 | 0.00 | 0.56 | 0.28 | 98 | 1011.4 |
| 20260509121025 | 8 | 0 | 0.0 | 0.0 | 0.00 | 0.56 | 0.28 | 98 | 1011.4 |
| 20260509120503 | 8 | 0 | 0.0 | 0.0 | 0.00 | 0.56 | 0.28 | 98 | 1011.4 |
| 20260509120004 | 8 | 0 | 0.0 | 0.0 | 0.00 | 0.56 | 0.28 | 98 | 1011.4 |
| 20260509115503 | 8 | 0 | 0.0 | 0.0 | 0.00 | 0.56 | 0.28 | 98 | 1011.5 |
| 20260509115004 | 8 | 0 | 0.0 | 0.0 | 0.00 | 0.56 | 0.28 | 98 | 1011.5 |
| 20260509114504 | 8 | 0 | 0.0 | 0.0 | 0.00 | 0.56 | 0.28 | 98 | 1011.5 |
| 20260509114004 | 8 | 0 | 0.0 | 0.0 | 0.00 | 0.56 | 0.28 | 98 | 1011.6 |
| 20260509113503 | 8 | 0 | 0.0 | 0.0 | 0.00 | 0.56 | 0.28 | 98 | 1011.6 |
| 20260509113004 | 8 | 248 | 0.0 | 1.6 | 0.00 | 0.56 | 0.28 | 98 | 1011.4 |
| 20260509112503 | 8 | 248 | 0.0 | 1.6 | 0.00 | 0.56 | 0.28 | 98 | 1011.5 |
| 20260509112003 | 8 | 248 | 0.0 | 4.8 | 0.00 | 0.56 | 0.28 | 98 | 1011.5 |
| 20260509111503 | 8 | 248 | 0.0 | 4.8 | 0.00 | 0.56 | 0.28 | 98 | 1011.8 |
| 20260509111003 | 8 | 0 | 0.0 | 0.0 | 0.03 | 0.56 | 0.28 | 98 | 1011.6 |
| 20260509110503 | 8 | 0 | 0.0 | 0.0 | 0.03 | 0.56 | 0.28 | 98 | 1011.8 |
| 20260509110004 | 8 | 248 | 0.0 | 1.6 | 0.03 | 0.56 | 0.28 | 98 | 1011.7 |
| 20260509105504 | 8 | 248 | 0.0 | 1.6 | 0.03 | 0.56 | 0.28 | 98 | 1011.6 |
| 20260509105004 | 8 | 247 | 0.0 | 1.6 | 0.03 | 0.56 | 0.28 | 98 | 1011.6 |
| 20260509104524 | 8 | 202 | 0.0 | 4.8 | 0.03 | 0.56 | 0.28 | 98 | 1011.6 |
| 20260509104003 | 8 | 194 | 0.0 | 4.8 | 0.05 | 0.56 | 0.28 | 98 | 1011.7 |
| 20260509103524 | 8 | 0 | 0.0 | 0.0 | 0.05 | 0.56 | 0.28 | 98 | 1011.7 |
| 20260509103004 | 8 | 0 | 0.0 | 0.0 | 0.05 | 0.56 | 0.28 | 98 | 1011.5 |
| 20260509102503 | 8 | 136 | 0.0 | 1.6 | 0.05 | 0.56 | 0.28 | 98 | 1011.5 |
| 20260509102003 | 8 | 136 | 0.0 | 1.6 | 0.05 | 0.56 | 0.28 | 98 | 1011.6 |
| 20260509101504 | 8 | 136 | 0.0 | 1.6 | 0.05 | 0.56 | 0.28 | 98 | 1011.6 |
| 20260509101024 | 8 | 136 | 0.0 | 1.6 | 0.03 | 0.53 | 0.25 | 98 | 1011.8 |
| 20260509100503 | 8 | 136 | 0.0 | 1.6 | 0.03 | 0.53 | 0.25 | 98 | 1012.0 |
| 20260509100004 | 8 | 136 | 1.6 | 1.6 | 0.03 | 0.53 | 0.25 | 98 | 1012.2 |
| 20260509095503 | 8 | 136 | 0.0 | 1.6 | 0.03 | 0.53 | 0.25 | 98 | 1012.2 |
| 20260509095003 | 8 | 136 | 0.0 | 1.6 | 0.03 | 0.53 | 0.25 | 98 | 1012.0 |
| 20260509094503 | 8 | 0 | 0.0 | 0.0 | 0.03 | 0.53 | 0.25 | 98 | 1011.8 |
| 20260509094024 | 8 | 0 | 0.0 | 0.0 | 0.00 | 0.51 | 0.23 | 98 | 1011.9 |
| 20260509093503 | 8 | 0 | 0.0 | 0.0 | 0.00 | 0.51 | 0.23 | 98 | 1012.0 |
| 20260509093003 | 8 | 0 | 0.0 | 0.0 | 0.00 | 0.51 | 0.23 | 98 | 1011.9 |
| 20260509092504 | 8 | 136 | 0.0 | 1.6 | 0.00 | 0.51 | 0.23 | 98 | 1011.8 |
| 20260509092004 | 8 | 136 | 0.0 | 1.6 | 0.00 | 0.51 | 0.23 | 97 | 1011.9 |
| 20260509091503 | 8 | 136 | 0.0 | 1.6 | 0.03 | 0.51 | 0.23 | 98 | 1012.0 |
| 20260509091003 | 8 | 0 | 0.0 | 0.0 | 0.03 | 0.51 | 0.23 | 98 | 1012.0 |
| 20260509090503 | 8 | 178 | 0.0 | 6.4 | 0.03 | 0.51 | 0.23 | 98 | 1012.0 |
| 20260509090024 | 8 | 178 | 0.0 | 6.4 | 0.03 | 0.51 | 0.23 | 98 | 1012.0 |
| 20260509085503 | 8 | 0 | 0.0 | 0.0 | 0.03 | 0.51 | 0.23 | 98 | 1012.0 |
| 20260509085003 | 8 | 0 | 0.0 | 0.0 | 0.03 | 0.51 | 0.23 | 98 | 1012.1 |
| 20260509084503 | 8 | 0 | 0.0 | 0.0 | 0.03 | 0.53 | 0.23 | 98 | 1012.2 |
| 20260509084003 | 8 | 0 | 0.0 | 0.0 | 0.03 | 0.53 | 0.23 | 98 | 1012.2 |